Location: Guise
(49.9006°N, 3.6280°E)
Time: 14:51:04
(UTC+00:00)

Daily predictions for brighter satellites

Satellite Brightness Start Highest point End
(mag) Time Altitude Azimuth Time Altitude Azimuth Time Altitude Azimuth
IRS-1A Rocket 4.4 20:23:46 10° SSE 20:29:26 81° ENE 20:35:15 10° NNW
Okean-O 3.2 20:25:26 10° S 20:29:46 60° WSW 20:34:10 10° NNW
Gbstr 26 Del rocket 3.2 20:28:06 10° WSW 20:32:24 85° SSE 20:37:42 10° ENE
Timation 2 Rocket 4.3 20:26:47 10° S 20:32:44 45° ESE 20:38:31 10° NE
CZ-4C R/B 3.2 20:29:23 10° NNE 20:33:05 61° ESE 20:36:37 10° S
Cosmos 1125 Rocket 4.3 20:30:17 10° SSE 20:34:58 33° ESE 20:39:41 10° NE
USA 276 2.0 20:36:42 10° W 20:39:37 63° SSW 20:42:37 10° ESE
Cosmos 2084 3.5 20:39:05 10° SSW 20:43:03 47° SE 20:46:53 10° NE
SPOT 3 Rocket 3.8 20:39:00 10° SSE 20:44:06 59° ENE 20:49:14 10° N
NOSS 2-2 (E) 2.8 20:47:27 10° SSW 20:50:36 50° SE 20:53:39 10° NE
NOSS 2-2 (C) 2.6 20:47:45 10° SW 20:50:56 81° SE 20:54:05 10° NE
Landsat 4 4.1 20:49:58 11° SE 20:52:59 40° ENE 20:56:15 10° N
Nadezhda 3 Rocket 4.0 20:46:49 10° N 20:53:00 87° W 20:59:10 10° S
In-Cosmos 22 Rocket 4.3 20:47:21 10° S 20:53:02 67° E 20:58:37 10° NNE
BREEZE-M DEB (TANK) 3.5 20:51:31 10° W 20:54:18 58° SSW 21:01:37 10° ESE
Cosmos 1544 Rocket 4.2 20:50:11 10° N 20:54:19 41° ENE 20:58:03 12° SE
NOSS 2-3 (E) 3.2 20:53:11 10° SSW 20:56:46 58° SE 21:00:48 10° NE
Cosmos 1844 4.2 20:51:46 10° SW 20:57:33 69° WNW 21:03:20 10° NNE
Terra 1.9 20:53:15 10° SSE 20:57:58 81° WSW 21:02:43 10° NNW
Meteor 1-21 Rocket 4.4 20:59:00 10° SSW 21:04:32 73° WNW 21:10:05 10° N
USA 305 3.9 21:01:45 10° WNW 21:05:23 40° N 21:08:39 10° ENE
ATLAS CENTAUR R/B 1.9 21:03:30 10° NW 21:07:21 49° SW 21:10:52 13° SSE
Cosmos 1437 Rocket 3.6 21:07:19 15° SSE 21:09:44 29° E 21:12:55 10° NNE
Meteor 2-1 Rocket 4.3 21:07:49 10° NNW 21:13:28 81° W 21:18:58 10° S
Cosmos 1833 Rocket 2.8 21:07:56 10° NNW 21:13:36 71° ENE 21:18:22 15° SE
NOSS 2-3 (C) 3.1 21:10:53 10° SW 21:14:30 84° SE 21:18:39 10° NE
Cosmos 1455 Rocket 3.9 21:10:32 10° NNW 21:14:47 48° W 21:18:58 10° SSW
Cosmos 1975 Rocket 3.3 21:14:30 10° SSW 21:18:57 75° WNW 21:23:26 10° N
Cosmos 1025 Rocket 4.5 21:15:32 10° SW 21:19:29 37° WNW 21:23:28 10° N
Orbus 7S? 4.3 21:17:33 10° W 21:19:45 22° SW 21:21:20 14° S
Cosmos 44 3.8 21:14:56 10° S 21:19:52 42° ESE 21:24:38 10° NE
Cosmos 962 Rocket 4.5 21:15:41 10° S 21:21:51 72° E 21:28:00 10° NNE
Lacrosse 5 2.4 21:17:01 10° WSW 21:22:02 62° NNW 21:27:05 10° NE
ERS-1 Rocket 3.9 21:19:03 10° S 21:23:48 43° W 21:28:35 10° NNW
Spot 2 Rocket 4.0 21:19:44 10° S 21:24:45 57° W 21:29:48 10° NNW
Cosmos 220 Rocket 3.9 21:20:52 10° NNW 21:25:02 82° WSW 21:28:09 17° SSE
Cosmos 2082 Rocket 3.4 21:21:34 10° NNW 21:26:39 33° NE 21:31:39 10° ESE
NOSS 2-2 (D) 3.1 21:25:13 10° SW 21:28:24 67° NW 21:31:34 10° NE
ATLAS 5 CENTAUR R/B 3.3 21:25:36 10° W 21:28:38 29° NNW 21:32:04 10° NNE
USA 307 3.8 21:24:52 10° W 21:28:38 45° N 21:32:14 10° ENE
Cosmos 2218 Rocket 4.2 21:23:41 13° SSE 21:28:59 53° E 21:34:58 10° NNE
Landsat 5 3.8 21:26:26 10° NNE 21:30:46 53° E 21:34:10 15° S
Cosmos 1844 Rocket 4.3 21:28:41 10° WSW 21:33:48 36° NW 21:38:58 10° NNE
Cosmos 2278 Rocket 3.1 21:31:13 17° SSE 21:34:41 30° ESE 21:39:34 10° NE
Cosmos 1606 3.2 21:31:43 10° NNW 21:35:11 49° W 21:38:05 14° SSW
MetOp-A 3.6 21:35:02 18° SSE 21:38:28 81° ENE 21:42:48 10° NNW
Cosmos 2298 Rocket 4.1 21:33:44 10° S 21:38:58 61° ESE 21:44:13 10° NNE
Cosmos 2341 Rocket 4.0 21:33:39 10° S 21:39:55 79° E 21:46:17 10° NNE
ULPM Upper Stage 4.3 21:36:13 10° NW 21:40:12 32° NNE 21:44:07 10° E
Cosmos 614 Rocket 3.9 21:35:57 10° NNW 21:41:03 78° ENE 21:44:35 20° SSE
H-2A R/B 4.2 21:44:33 12° ESE 21:46:53 19° ENE 21:49:40 10° NNE
Cosmos 1869 4.3 21:43:24 10° NNW 21:47:00 40° W 21:50:08 13° SSW
CZ-4C R/B 3.9 21:43:58 10° NW 21:50:04 40° NNE 21:57:31 10° E
Cosmos 1536 Rocket 3.5 21:47:10 19° S 21:50:08 65° E 21:54:26 10° NNE
Ariane Rocket 4.2 21:47:35 10° SSW 21:52:15 37° W 21:56:57 10° NNW
ISS -3.3 21:50:08 10° W 21:53:26 62° N 21:56:45 10° E
COSMOS 2406 4.1 21:51:00 10° NNW 21:56:22 41° NE 22:00:48 15° ESE
USA 290 3.5 21:58:15 23° ESE 21:58:24 23° ESE 22:01:02 10° NE
ARIANE 5 R/B 2.9 21:58:54 23° SE 22:01:27 56° ENE 22:05:51 10° N
Cosmos 1269 Rocket 4.3 21:58:28 10° NNW 22:03:45 61° ENE 22:07:06 22° SE
BREEZE-M DEB (TANK) 3.8 21:54:12 10° WNW 22:04:07 38° SW 22:06:11 23° S
Cosmos 1727 Rocket 4.1 21:58:14 10° N 22:04:35 68° ENE 22:08:48 22° SSE
ATLAS 3B R/B 3.7 22:01:26 20° SSE 22:05:02 31° ESE 22:11:26 10° NE
Cosmos 2228 3.6 22:01:13 10° NNW 22:05:18 49° W 22:08:06 18° SSW
Geosat 4.4 22:04:41 10° NNE 22:09:40 64° NW 22:14:37 10° SW
Cosmos 1943 Rocket 2.8 22:08:20 23° SSE 22:11:03 37° ESE 22:16:10 10° NE
USA 276 3.9 22:11:19 10° W 22:13:09 18° SW 22:13:09 18° SW
Cosmos 1821 Rocket 4.1 22:09:49 20° S 22:14:14 70° E 22:20:34 10° NNE
USA 281 4.3 22:09:56 10° ESE 22:15:48 36° NE 22:21:41 10° NNW
Gbstr 26 Del rocket 3.7 22:14:31 10° W 22:19:17 72° N 22:25:14 10° E
Cosmos 2058 4.1 22:19:03 23° ESE 22:20:16 28° E 22:23:48 10° NNE
Cosmos 2150 Rocket 4.4 22:15:18 10° SSW 22:20:40 67° WNW 22:26:08 10° NNE
ALOS 2 3.7 22:19:19 20° ESE 22:21:37 34° ENE 22:25:37 10° N
Cosmos 2084 Rocket 3.2 22:21:33 10° NW 22:25:32 80° NE 22:27:21 31° SE
Spot 4 4.3 22:23:23 25° SE 22:26:00 54° ENE 22:30:45 10° N
NOSS 3-1 (C) 3.0 22:24:27 10° SSW 22:29:19 76° SE 22:35:19 10° NE
Cosmos 1544 4.2 22:30:25 16° ENE 22:30:25 16° ENE 22:31:20 10° NE
SeaSat 1 2.8 22:26:56 23° SE 22:29:58 61° NE 22:34:50 10° NNW
Cosmos 1812 2.5 22:31:51 10° N 22:35:25 74° E 22:36:28 42° SSE
Terra 4.4 22:34:53 10° WSW 22:36:20 11° W 22:37:47 10° WNW
USA 305 3.3 22:34:34 10° WNW 22:38:04 45° NNE 22:40:35 14° E
Cosmos 1238 Rocket 3.6 22:37:49 10° N 22:40:56 34° ENE 22:42:01 28° ESE
Aureole 2 4.2 22:41:11 42° SSW 22:42:07 82° WNW 22:45:32 10° NNE
BREEZE-M R/B 3.9 22:38:05 10° WSW 22:42:30 74° SSE 22:57:54 10° E
PSLV R/B 3.8 22:39:18 10° NNE 22:43:18 77° ESE 22:44:50 36° S
Cosmos 1892 Rocket 3.5 22:45:05 34° S 22:46:59 76° E 22:51:27 10° NNE
Cosmos 2251 Rocket 4.4 22:42:28 10° NNW 22:47:34 42° ENE 22:51:01 19° ESE
Cosmos 1140 Rocket 3.5 22:47:04 10° NNW 22:52:13 71° ENE 22:54:48 29° SE
MINOTAUR 4 R/B 3.2 22:54:03 10° NNE 22:56:54 83° ESE 22:57:02 79° SSE
Cosmos 1833 Rocket 4.4 22:52:44 10° NW 22:56:58 22° WSW 23:00:03 14° SW
Cosmos 2239 Rocket 4.5 22:55:30 24° SSW 22:59:23 83° W 23:05:41 10° N
SL-08 R/B 4.5 22:57:35 25° SSW 23:01:22 81° W 23:07:31 10° N
BREEZE-M DEB (TANK) 3.6 22:58:40 10° W 23:01:37 68° SSW 23:09:34 10° ESE
USA 307 3.2 22:58:32 10° WNW 23:02:18 52° NNE 23:05:32 11° E
Cosmos-2242 3.6 23:00:16 10° N 23:04:20 45° ENE 23:05:51 31° SE
Cosmos 2123 Rocket 4.0 22:58:07 10° N 23:04:26 89° E 23:07:51 29° S
CENTAUR R/B 4.3 22:58:21 10° NW 23:05:33 42° NNE 23:13:55 10° E
Lacrosse 5 3.5 23:01:01 10° WNW 23:05:43 37° N 23:10:26 10° ENE
NOSS 3-1 (A) 3.0 23:03:57 27° SSW 23:06:44 69° SE 23:12:42 10° NE
Cosmos 1726 Rocket 4.3 23:03:15 10° NNW 23:07:21 42° W 23:09:05 28° SW
NOSS 8 (F) 4.3 23:05:33 10° NW 23:08:36 66° SW 23:09:06 56° S
Cosmos 2082 Rocket 2.5 23:05:32 10° NW 23:11:00 54° WSW 23:13:28 31° S
Cosmos 1515 3.9 23:10:51 10° N 23:14:16 50° ENE 23:14:57 42° ESE
Cosmos 2278 Rocket 2.9 23:12:59 10° SW 23:18:30 53° NW 23:24:04 10° NNE
ULPM Upper Stage 2.9 23:15:33 10° NW 23:19:51 59° SW 23:20:59 43° S
Lacrosse 4 Rocket 3.7 23:20:40 11° ESE 23:20:40 11° ESE 23:21:40 10° E
PSLV R/B 3.9 23:16:48 10° NNE 23:21:01 52° E 23:22:20 38° SSE
Cosmos 2369 Rocket 3.3 23:19:37 23° SE 23:21:15 27° ESE 23:25:53 10° NE
H-2A R/B 2.9 23:20:31 36° SW 23:21:32 45° W 23:25:15 10° NNW
Cosmos 489 Rocket 4.4 23:24:24 29° SSW 23:27:43 77° ESE 23:33:57 10° NNE
Cosmos 1190 Rocket 4.5 23:24:39 10° NNW 23:29:48 55° ENE 23:32:46 24° SE
ISS -3.9 23:26:57 10° WNW 23:30:09 67° SW 23:30:09 67° SW
USA 290 4.2 23:30:56 16° WSW 23:32:43 24° WNW 23:35:25 10° N
Cosmos 2058 Rocket 3.7 23:29:02 10° NNW 23:33:10 43° W 23:34:37 32° SW
Cosmos 1782 2.6 23:29:55 10° N 23:33:44 85° W 23:34:35 53° S
USA 229 DEB 4.0 23:32:18 31° SSE 23:34:36 42° ESE 23:40:51 10° NE
USA 229 4.0 23:32:27 31° SSE 23:34:44 42° ESE 23:40:58 10° NE
CRYOSAT 2 4.3 23:31:02 10° N 23:35:56 81° W 23:37:58 36° SSW
Cosmos 1862 3.9 23:35:38 36° ESE 23:36:22 41° E 23:40:00 10° NNE
Cosmos 1378 2.6 23:34:36 10° N 23:37:49 78° ENE 23:38:06 69° SE
Cosmos 482 Debris 4.2 23:34:16 10° W 23:38:47 75° NNW 23:42:04 10° ENE
CZ-4C R/B 2.9 23:32:12 10° NW 23:39:14 83° SW 23:45:35 20° SE
COSMOS 2455 3.9 23:34:16 10° NNW 23:40:03 43° NE 23:45:47 10° ESE
Meteor 2-2 Rocket 4.2 23:34:52 10° NNW 23:40:38 87° W 23:43:24 33° S
COSMOS 2406 3.9 23:35:24 10° NW 23:40:42 41° WSW 23:42:50 29° SSW
Cosmos 1934 Rocket 4.2 23:39:12 26° SSW 23:42:53 65° WNW 23:49:06 10° N
Cosmos 2221 3.7 23:41:03 10° N 23:44:58 35° ENE 23:46:52 23° ESE
Cosmos 2285 Rocket 4.0 23:45:18 10° NNW 23:51:48 83° ENE 23:55:34 27° SSE
Cosmos 1825 Rocket 4.5 23:54:06 29° SE 23:55:28 37° E 23:59:26 10° NNE
